Regional Weather Roundup
Issued by NWS Northern Indiana

Home | Current Version | Previous Version | Graphics & Text | Print | Product List | Glossary On
Versions: 1 2 3 4 5 6 7 8 9 10 11 12 13 14 15 16 17 18 19 20 21 22 23 24 25 26 27 28 29 30 31 32 33 34 35 36 37 38 39 40 41 42 43 44 45 46 47 48 49 50
000
ASUS43 KIWX 220000
RWRIWX

KIWX WEATHER ROUNDUP
NATIONAL WEATHER SERVICE NORTHERN INDIANA
700 PM EST TUE FEB 21 2017

NOTE: "FAIR" INDICATES FEW OR NO CLOUDS BELOW 12,000 FEET WITH NO
SIGNIFICANT WEATHER AND/OR OBSTRUCTIONS TO VISIBILITY.

* THESE STATIONS ARE NOT UNDER NWS QUALITY CONTROL. THEY ALSO MAY NOT
  REPORT WEATHER SUCH AS PRECIPITATION OR FOG.

INZ001>027-220100-
NORTHERN INDIANA

CITY           SKY/WX    TMP DP  RH WIND       PRES   REMARKS
GARY*          MOCLDY    59  54  82 CALM      29.91S
MICHIGAN CITY* PTCLDY    54  52  94 CALM      29.92S
KNOX*          PTCLDY    55  34  44 CALM      29.92S
SOUTH BEND     PTCLDY    55  51  86 S6        29.93F
6HR MIN TEMP:  54; 6HR MAX TEMP:  62;

ELKHART*       CLEAR     54  48  82 CALM      29.92F
GOSHEN         PTCLDY    53  47  79 CALM      29.93S
6HR MIN TEMP:  53; 6HR MAX TEMP:  62; 6HR PCP: TRACE;

WARSAW*        CLOUDY    55  50  82 CALM      29.94R
ANGOLA*        PTCLDY    52  52 100 CALM      29.94S
FORT WAYNE     MOCLDY    54  48  80 CALM      29.95R
6HR MIN TEMP:  54; 6HR MAX TEMP:  61; 6HR PCP: TRACE;

PERU/GRISSOM   PTCLDY    55  52  90 N5        29.93R
6HR MIN TEMP:  55; 6HR MAX TEMP:  60; 6HR PCP: TRACE;


$$
INZ028>050-220100-
CENTRAL INDIANA

CITY           SKY/WX    TMP DP  RH WIND       PRES   REMARKS
LAFAYETTE      CLOUDY    57  51  80 CALM      29.93R
6HR MIN TEMP:  57; 6HR MAX TEMP:  61;

KOKOMO*        CLOUDY    56  51  84 NE3       29.95R
6HR MIN TEMP:  56; 6HR MAX TEMP:  61;

MUNCIE*        CLOUDY    62  49  62 S9        29.95R
6HR MIN TEMP:  62; 6HR MAX TEMP:  66;

INDIANAPOLIS   CLOUDY    60  50  69 S7        29.94R
6HR MIN TEMP:  60; 6HR MAX TEMP:  65;


$$
MIZ043>046-050>051-056>058-064>065-071>073-077>080-220100-
SOUTHWEST LOWER MICHIGAN

CITY           SKY/WX    TMP DP  RH WIND       PRES   REMARKS
BATTLE CREEK   MOCLDY    57  51  80 W5        29.94R
6HR MIN TEMP:  57; 6HR MAX TEMP:  64;

BENTON HARBOR  MOCLDY    55  51  86 NE3       29.92S
6HR MIN TEMP:  53; 6HR MAX TEMP:  58;

COLDWATER*     PTCLDY    54  49  83 CALM      29.93S
6HR MIN TEMP:  54; 6HR MAX TEMP:  60;

HILLSDALE*     PTCLDY    54  46  76 S3        29.94R
HOLLAND        CLOUDY    51  48  89 CALM      29.93S
6HR MIN TEMP:  49; 6HR MAX TEMP:  56;

GRAND RAPIDS   MOCLDY    49  46  90 SW7       29.92S FOG
6HR MIN TEMP:  49; 6HR MAX TEMP:  56; 6HR PCP: TRACE;

KALAMAZOO      MOCLDY    54  47  77 NW5       29.94R
6HR MIN TEMP:  54; 6HR MAX TEMP:  64;

STURGIS*       PTCLDY    53  50  87 S5        29.93S
6HR MIN TEMP:  53; 6HR MAX TEMP:  61;

THREE RIVERS*  FAIR      54  50  86 S3        29.93S
6HR MIN TEMP:  54; 6HR MAX TEMP:  62;


$$
OHZ001>008-015>018-024>025-220100-
NORTHWEST OHIO

CITY           SKY/WX    TMP DP  RH WIND       PRES   REMARKS
DEFIANCE       CLOUDY    53  50  89 CALM      29.95R
6HR MIN TEMP:  52; 6HR MAX TEMP:  57; 6HR PCP: TRACE;

FINDLAY        CLOUDY    57  47  69 S5        29.95R
6HR MIN TEMP:  57; 6HR MAX TEMP:  63;

TOLEDO EXPRESS CLOUDY    53  50  89 CALM      29.94S
6HR MIN TEMP:  53; 6HR MAX TEMP:  57; 6HR PCP: TRACE;

TOLEDO METCALF CLOUDY    55  51  86 CALM      29.95S
6HR MIN TEMP:  54; 6HR MAX TEMP:  58; 6HR PCP: TRACE;

LIMA           CLOUDY    59  49  69 S6        29.95S
6HR MIN TEMP:  59; 6HR MAX TEMP:  64;


$$
AND FOR LAKE MICHIGAN COASTAL AND OPEN LAKE BUOY OBSERVATIONS

STATION/POSITION TEMP    WIND        PRES    VSBY  WAVE
                 AIR SEA DIR/SP/G                  HT/PER
                 (F)     (DEG/KT/KT) (MB)    (MI)  (FT/S)
CALUMET HARBOR    50      90/  2/  3 1012.2F
MICHIGAN CITY     54      60/  5/  5   N/A
BURNS HARBOR      46      90/  7/  7 1013.5S

$$
&&



USA.gov is the U.S. government's official web portal to all federal, state and local government web resources and services.